Location: Carrer del Canonge
(41.4901°N, 2.2931°E)
Time: 13:17:25
(UTC+00:00)

Cosmos 2263 Rocket - Pass Details

Date: 18 September 2020
Orbit: 822 x 850 km, 71.0° (Epoch: 29 October)

Event Time Altitude Azimuth Distance (km) Brightness Sun altitude
Rises 19:29:25 0° 231° (SW) 3,345 5.8 -18.3°
Reaches altitude 10° 19:32:05 10° 241° (WSW) 2,418 5.1 -18.7°
Maximum altitude 19:37:00 32° 303° (WNW) 1,390 4.0 -19.6°
Drops below altitude 10° 19:41:58 10° 6° (N) 2,441 4.8 -20.5°
Sets 19:44:41 0° 17° (NNE) 3,383 5.4 -21.0°
